FW4701 Weather Reports


Display with metric or nautical units.
time (UTC)temp
F
wind
direction
speed
MPH
gust
MPH
rain 1hr
in
rain 24hr
in
rain mn
in
humidity
%
barometer
mb
20260503004601 77 68 1.0 4.0 0.00 0.00 0.00 28 1020.6
20260503004514 55 244 1.0 7.0 0.00 0.00 0.00 39 1016.0
20260503004007 55 256 2.0 7.0 0.00 0.00 0.00 39 1016.1
20260503003504 56 269 2.0 11.0 0.00 0.00 0.00 38 1016.1
20260503003101 78 41 0.0 0.0 0.00 0.00 0.00 26 1020.5
20260503003019 56 234 5.0 11.0 0.00 0.00 0.00 37 1016.2
20260503002509 56 275 5.0 10.0 0.00 0.00 0.00 37 1016.2
20260503002002 57 235 3.0 10.0 0.00 0.00 0.00 37 1016.2
20260503001555 77 41 0.0 0.0 0.00 0.00 0.00 26 1020.6
20260503001505 57 223 5.0 10.0 0.00 0.00 0.00 37 1016.1
20260503001003 57 227 4.0 10.0 0.00 0.00 0.00 36 1016.1
20260503000504 57 261 1.0 11.0 0.00 0.00 0.00 37 1016.1
20260503000034 77 41 0.0 0.0 0.00 0.00 0.00 31 1020.5
20260503000015 57 225 6.0 11.0 0.00 0.00 0.00 36 1016.0
20260502235503 57 238 3.0 9.0 0.00 0.00 0.00 36 1016.0
20260502235003 56 296 4.0 13.0 0.00 0.00 0.00 36 1016.0
20260502234529 75 41 0.0 4.0 0.00 0.00 0.00 26 1020.6
20260502234510 56 293 5.0 13.0 0.00 0.00 0.00 36 1016.1
20260502234005 57 240 2.0 10.0 0.00 0.00 0.00 37 1016.1
20260502233505 57 283 2.0 6.0 0.00 0.00 0.00 37 1016.2
20260502233022 78 13 0.0 2.0 0.00 0.00 0.00 25 1020.5
20260502233016 57 246 2.0 8.0 0.00 0.00 0.00 37 1016.2
20260502232504 56 269 4.0 8.0 0.00 0.00 0.00 38 1016.2
20260502232005 56 236 2.0 8.0 0.00 0.00 0.00 38 1016.4
20260502231523 56 252 5.0 8.0 0.00 0.00 0.00 38 1016.2
20260502231010 56 296 2.0 11.0 0.00 0.00 0.00 38 1016.1
20260502230503 56 284 3.0 14.0 0.00 0.00 0.00 38 1016.3
20260502230011 76 315 0.0 4.0 0.00 0.00 0.00 24 1020.6
20260502230004 56 236 3.0 14.0 0.00 0.00 0.00 38 1016.4
20260502225503 56 225 5.0 12.0 0.00 0.00 0.00 38 1016.4
20260502225004 55 257 5.0 12.0 0.00 0.00 0.00 39 1016.5
20260502224511 55 290 4.0 12.0 0.00 0.00 0.00 37 1016.4
20260502224505 77 304 2.0 6.0 0.00 0.00 0.00 27 1020.6
20260502224005 55 9 4.0 12.0 0.00 0.00 0.00 38 1016.4
20260502223504 55 307 3.0 13.0 0.00 0.00 0.00 38 1016.5
20260502223100 77 10 0.0 1.0 0.00 0.00 0.00 26 1020.7
20260502223014 56 289 6.0 13.0 0.00 0.00 0.00 37 1016.6
20260502222505 56 251 7.0 13.0 0.00 0.00 0.00 37 1016.5
20260502222008 56 306 2.0 6.0 0.00 0.00 0.00 39 1016.5
20260502221554 75 106 1.0 5.0 0.00 0.00 0.00 28 1020.6
20260502221519 56 244 0.0 6.0 0.00 0.00 0.00 41 1016.4
20260502221005 55 214 0.0 7.0 0.00 0.00 0.00 40 1016.5
20260502220506 55 261 2.0 8.0 0.00 0.00 0.00 40 1016.5
20260502220048 75 275 2.0 6.0 0.00 0.00 0.00 29 1020.8
20260502220023 55 248 4.0 12.0 0.00 0.00 0.00 40 1016.7
20260502215505 55 232 2.0 12.0 0.00 0.00 0.00 40 1016.5
20260502215005 55 265 6.0 12.0 0.00 0.00 0.00 40 1016.7
20260502214542 75 60 1.0 6.0 0.00 0.00 0.00 26 1020.9
20260502214507 55 266 2.0 9.0 0.00 0.00 0.00 39 1016.7
20260502214004 55 286 3.0 9.0 0.00 0.00 0.00 40 1016.8
20260502213506 55 300 4.0 9.0 0.00 0.00 0.00 39 1016.6
20260502213051 75 83 0.0 8.0 0.00 0.00 0.00 24 1021.1
20260502213014 55 318 3.0 9.0 0.00 0.00 0.00 40 1016.7
20260502212506 55 252 3.0 11.0 0.00 0.00 0.00 40 1016.7
20260502212007 54 275 5.0 11.0 0.00 0.00 0.00 41 1016.7
20260502211530 75 49 0.0 6.0 0.00 0.00 0.00 28 1021.3
20260502211514 54 244 1.0 8.0 0.00 0.00 0.00 40 1016.8
20260502211007 54 281 3.0 12.0 0.00 0.00 0.00 41 1017.0
20260502210504 54 306 2.0 12.0 0.00 0.00 0.00 40 1017.0
20260502210024 75 65 0.0 3.0 0.00 0.00 0.00 28 1021.6
20260502210020 54 243 6.0 12.0 0.00 0.00 0.00 40 1017.0
20260502205507 54 71 1.0 7.0 0.00 0.00 0.00 41 1017.0
20260502205010 54 208 0.0 5.0 0.00 0.00 0.00 41 1017.2
20260502204527 54 263 3.0 6.0 0.00 0.00 0.00 41 1017.0
20260502204003 53 304 3.0 6.0 0.00 0.00 0.00 41 1017.2
20260502203504 53 260 1.0 4.0 0.00 0.00 0.00 41 1017.3
20260502203015 54 271 1.0 7.0 0.00 0.00 0.00 40 1017.3
20260502203012 74 339 3.0 7.0 0.00 0.00 0.00 33 1021.8
20260502202504 54 341 2.0 11.0 0.00 0.01 0.00 39 1017.5
20260502202005 54 269 2.0 11.0 0.00 0.01 0.00 39 1017.5
20260502201514 54 302 2.0 13.0 0.00 0.01 0.00 40 1017.2
20260502201510 74 117 0.0 7.0 0.00 0.00 0.00 30 1022.0
20260502201003 54 285 5.0 13.0 0.00 0.01 0.00 41 1017.6
20260502200507 53 328 1.0 7.0 0.00 0.01 0.00 40 1017.6
20260502200135 74 297 3.0 7.0 0.00 0.00 0.00 31 1022.1
20260502200018 53 309 1.0 8.0 0.00 0.01 0.00 40 1017.8
20260502195509 54 302 1.0 14.0 0.00 0.01 0.00 40 1017.6
20260502195009 54 262 8.0 14.0 0.00 0.01 0.00 38 1017.8
20260502194607 74 287 4.0 9.0 0.00 0.02 0.00 32 1022.0
20260502194524 54 256 3.0 9.0 0.00 0.01 0.00 38 1017.9
20260502194009 54 338 3.0 10.0 0.00 0.01 0.00 40 1018.0
20260502193509 54 285 4.0 10.0 0.00 0.01 0.00 39 1017.9
20260502193048 73 62 0.0 10.0 0.00 0.02 0.00 31 1022.2
20260502193007 54 314 1.0 7.0 0.00 0.01 0.00 41 1018.1
20260502192506 53 219 2.0 8.0 0.00 0.01 0.00 42 1018.0
20260502192008 52 270 4.0 8.0 0.00 0.01 0.00 41 1018.3
20260502191546 73 354 0.0 9.0 0.00 0.02 0.00 33 1022.2
20260502191519 52 305 3.0 8.0 0.00 0.01 0.00 42 1018.2
20260502191006 52 236 2.0 8.0 0.00 0.01 0.00 41 1018.3
20260502190506 52 49 1.0 9.0 0.00 0.01 0.00 42 1018.4
20260502190037 73 345 3.0 9.0 0.00 0.02 0.00 32 1022.4
20260502190018 52 281 3.0 9.0 0.00 0.01 0.00 43 1018.5
20260502185508 52 5 3.0 10.0 0.00 0.01 0.00 42 1018.6
20260502185008 52 213 2.0 12.0 0.00 0.01 0.00 41 1018.6
20260502184530 73 258 2.0 4.0 0.00 0.02 0.00 31 1022.5
20260502184528 52 273 6.0 12.0 0.00 0.01 0.00 40 1018.7
20260502184007 52 246 5.0 11.0 0.00 0.01 0.00 41 1018.7
20260502183506 52 273 2.0 10.0 0.00 0.01 0.00 40 1018.6
20260502183024 72 70 0.0 8.0 0.00 0.02 0.00 33 1022.9
20260502183022 52 273 1.0 10.0 0.00 0.01 0.00 42 1018.5
20260502182506 52 213 2.0 10.0 0.00 0.01 0.00 43 1018.8
20260502182011 51 244 1.0 8.0 0.00 0.01 0.00 42 1018.9
20260502181526 72 252 3.0 10.0 0.00 0.02 0.00 31 1023.1
20260502181509 51 292 3.0 8.0 0.00 0.01 0.00 44 1018.9
20260502181004 51 298 2.0 10.0 0.00 0.01 0.00 44 1019.0
20260502180504 51 78 1.0 10.0 0.00 0.01 0.00 43 1019.0
20260502170507 50 279 2.0 10.0 0.00 0.01 0.00 41 1019.6
20260502164003 49 339 3.0 9.0 0.00 0.01 0.00 44 1019.8
20260502163506 49 303 4.0 13.0 0.00 0.01 0.00 42 1019.6
20260502163037 68 51 1.0 7.0 0.00 0.02 0.00 39 1024.2
20260502163024 49 281 6.0 13.0 0.00 0.01 0.00 43 1019.8
20260502162509 49 245 3.0 8.0 0.00 0.01 0.00 44 1019.8
20260502162007 49 270 3.0 7.0 0.00 0.01 0.00 44 1019.9
20260502161530 68 304 3.0 8.0 0.00 0.02 0.00 38 1024.3
20260502161525 49 59 1.0 9.0 0.00 0.01 0.00 43 1020.0
20260502161006 49 298 3.0 9.0 0.00 0.01 0.00 44 1020.0
20260502160509 48 37 0.0 8.0 0.00 0.01 0.00 46 1019.9
20260502152005 48 273 1.0 7.0 0.00 0.01 0.00 48 1020.3
20260502151524 47 346 2.0 7.0 0.00 0.01 0.00 48 1020.3
20260502151510 64 290 5.0 9.0 0.00 0.04 0.00 16 1024.0
20260502151006 47 304 3.0 7.0 0.00 0.01 0.00 47 1020.2
20260502150503 47 277 1.0 8.0 0.00 0.01 0.00 49 1020.2
20260502130505 41 282 1.0 3.0 0.00 0.01 0.00 83 1020.2
20260502123504 37 232 1.0 4.0 0.00 0.01 0.00 91 1020.3
20260502123017 46 272 0.0 1.0 0.00 0.09 0.00 45 1022.9
20260502123012 37 259 2.0 4.0 0.00 0.01 0.00 92 1020.2
20260502122504 37 246 1.0 3.0 0.00 0.01 0.00 92 1020.2
20260502122006 37 261 0.0 2.0 0.00 0.01 0.00 93 1020.2
20260502121515 37 234 0.0 1.0 0.00 0.01 0.00 93 1020.2
20260502121008 36 234 0.0 1.0 0.00 0.01 0.00 93 1020.1
20260502120507 37 234 0.0 1.0 0.00 0.01 0.00 93 1020.1
20260502115506 37 163 0.0 0.0 0.00 0.01 0.00 95 1020.0
20260502115007 36 163 0.0 0.0 0.00 0.01 0.00 95 1020.0
20260502114523 35 163 0.0 0.0 0.00 0.01 0.00 95 1019.9
20260502114504 0 0.0 0.0 0.00 0.09 0.00 1022.4
20260502114007 34 163 0.0 0.0 0.00 0.01 0.00 95 1019.9
20260502113507 33 163 0.0 0.0 0.00 0.01 0.00 94 1019.8
20260502113115 0 0.0 0.0 0.00 0.09 0.00 1022.0
20260502113033 33 163 0.0 0.0 0.00 0.01 0.00 94 1019.8
20260502112503 32 163 0.0 0.0 0.00 0.01 0.00 94 1019.8
20260502112003 32 163 0.0 0.0 0.00 0.01 0.00 93 1019.7
20260502111602 0 275 0.0 0.0 0.00 0.09 0.00 1021.7
20260502111514 32 163 0.0 0.0 0.00 0.01 0.00 93 1019.7
20260502111004 32 163 0.0 0.0 0.00 0.01 0.00 93 1019.7
20260502110505 32 163 0.0 0.0 0.00 0.01 0.00 93 1019.6
20260502110051 44 272 0.0 0.0 0.00 0.09 0.00 44 1021.5
20260502110023 32 163 0.0 0.0 0.00 0.01 0.00 93 1019.6
20260502105505 31 163 0.0 0.0 0.00 0.01 0.00 93 1019.6
20260502105005 31 163 0.0 0.0 0.00 0.01 0.00 93 1019.6
20260502104545 45 272 0.0 0.0 0.00 0.09 0.00 45 1021.2
20260502104522 32 163 0.0 0.0 0.00 0.01 0.00 93 1019.6
20260502104008 32 163 0.0 0.0 0.00 0.01 0.00 93 1019.5
20260502103508 32 163 0.0 0.0 0.00 0.01 0.00 93 1019.5
20260502103104 45 272 0.0 0.0 0.00 0.09 0.00 45 1021.0
20260502103023 32 163 0.0 0.0 0.00 0.01 0.00 93 1019.5
20260502102507 32 163 0.0 0.0 0.00 0.01 0.00 93 1019.5
20260502102008 32 163 0.0 0.0 0.00 0.01 0.00 93 1019.5
20260502101548 46 272 0.0 0.0 0.00 0.09 0.00 45 1020.9
20260502101527 32 163 0.0 0.0 0.00 0.01 0.00 93 1019.5
20260502101011 32 163 0.0 0.0 0.00 0.01 0.00 93 1019.5
20260502100504 32 163 0.0 0.0 0.00 0.01 0.00 93 1019.5
20260502091529 46 257 0.0 1.0 0.00 0.10 0.00 44 1020.8
20260502091526 32 163 0.0 0.0 0.00 0.03 0.00 92 1019.4
20260502091015 32 163 0.0 0.0 0.00 0.03 0.00 92 1019.4
20260502090507 32 163 0.0 0.0 0.00 0.03 0.00 92 1019.3
20260502071522 34 74 0.0 1.0 0.00 0.04 0.00 91 1019.3
20260502071507 48 56 0.0 0.0 0.00 0.10 0.00 41 1020.8
20260502071007 34 74 0.0 0.0 0.00 0.04 0.00 91 1019.3
20260502070507 34 74 0.0 0.0 0.00 0.04 0.00 91 1019.4
20260502070026 34 74 0.0 0.0 0.00 0.04 0.00 90 1019.4
20260502070003 48 56 0.0 0.0 0.00 0.10 0.00 39 1020.9
20260502065505 34 74 0.0 0.0 0.00 0.04 0.00 90 1019.5
20260502065011 34 74 0.0 0.0 0.00 0.04 0.00 90 1019.5
20260502064601 48 56 0.0 0.0 0.00 0.10 0.00 38 1020.9
20260502064531 34 74 0.0 0.0 0.00 0.04 0.00 90 1019.5
20260502064016 34 74 0.0 0.0 0.00 0.04 0.00 90 1019.5
20260502063505 34 74 0.0 0.0 0.00 0.04 0.00 90 1019.6
20260502063121 49 56 0.0 0.0 0.00 0.10 0.00 39 1020.8
20260502063018 34 74 0.0 0.0 0.00 0.04 0.00 90 1019.7
20260502062507 34 74 0.0 0.0 0.00 0.04 0.00 90 1019.7
20260502062009 34 74 0.0 0.0 0.00 0.04 0.00 90 1019.7
20260502061554 50 56 0.0 0.0 0.00 0.10 0.00 39 1020.8
20260502061519 34 74 0.0 0.0 0.00 0.04 0.00 89 1019.7
20260502061003 34 74 0.0 0.0 0.00 0.04 0.00 89 1019.7
20260502060503 34 74 0.0 0.0 0.00 0.04 0.00 89 1019.8
20260502060055 50 56 0.0 0.0 0.00 0.10 0.00 39 1020.8
20260502060004 34 74 0.0 0.0 0.00 0.04 0.00 89 1019.7
20260502055504 35 74 0.0 0.0 0.00 0.04 0.00 89 1019.8
20260502055004 35 74 0.0 0.0 0.00 0.04 0.00 89 1019.8
20260502054557 50 56 0.0 0.0 0.00 0.10 0.00 38 1020.9
20260502054507 35 74 0.0 0.0 0.00 0.04 0.00 88 1019.8
20260502054004 35 74 0.0 0.0 0.00 0.04 0.00 88 1019.8
20260502053503 35 74 0.0 0.0 0.00 0.04 0.00 88 1019.7
20260502053049 50 56 0.0 0.0 0.00 0.10 0.00 37 1020.9
20260502053012 35 74 0.0 0.0 0.00 0.04 0.00 87 1019.8
20260502052507 35 74 0.0 0.0 0.00 0.04 0.00 87 1019.8
20260502052004 35 74 0.0 0.0 0.00 0.05 0.00 87 1019.8
20260502051541 51 56 0.0 0.0 0.00 0.10 0.00 38 1020.8
20260502051519 35 74 0.0 0.0 0.00 0.05 0.00 87 1019.8
20260502051007 35 74 0.0 0.0 0.00 0.05 0.00 87 1019.7
20260502050509 35 74 0.0 1.0 0.00 0.05 0.00 87 1019.8
20260502050038 51 56 0.0 0.0 0.00 0.10 0.00 39 1020.9
20260502050025 35 74 0.0 1.0 0.00 0.06 0.00 86 1019.8
20260502045503 35 74 0.0 0.0 0.00 0.07 0.06 86 1019.8
20260502045009 36 74 0.0 0.0 0.00 0.08 0.06 86 1019.8
20260502044535 51 56 0.0 0.0 0.00 0.10 0.10 38 1020.8
20260502044503 36 74 0.0 0.0 0.00 0.09 0.06 85 1019.8
20260502044003 36 74 0.0 0.0 0.00 0.09 0.06 85 1019.8
20260502043505 36 74 0.0 0.0 0.00 0.10 0.06 85 1019.8
20260502043031 52 56 0.0 0.0 0.00 0.10 0.10 38 1020.7
20260502043010 36 74 0.0 0.0 0.00 0.10 0.06 85 1019.8
20260502042507 36 74 0.0 0.0 0.00 0.11 0.06 85 1019.7
20260502042005 36 74 0.0 0.0 0.00 0.11 0.06 84 1019.7
20260502041532 53 56 0.0 0.0 0.00 0.10 0.10 38 1020.7
20260502041518 36 74 0.0 0.0 0.00 0.12 0.06 84 1019.7
20260502041003 37 74 0.0 0.0 0.00 0.12 0.06 83 1019.7
20260502040503 37 74 0.0 0.0 0.00 0.12 0.06 83 1019.7
20260502040023 53 56 0.0 0.0 0.00 0.10 0.10 39 1020.7
20260502040017 37 74 0.0 0.0 0.00 0.12 0.06 82 1019.7
20260502035507 37 74 0.0 0.0 0.00 0.12 0.06 82 1019.6
20260502035007 37 74 0.0 0.0 0.00 0.12 0.06 81 1019.6
20260502034522 37 74 0.0 0.0 0.00 0.12 0.06 80 1019.6
20260502034003 37 74 0.0 0.0 0.00 0.12 0.06 80 1019.5
20260502033503 37 74 0.0 0.0 0.00 0.12 0.06 79 1019.5
20260502033018 53 56 0.0 0.0 0.00 0.10 0.10 38 1020.3
20260502033012 37 74 0.0 0.0 0.00 0.12 0.06 79 1019.6
20260502032506 38 74 0.0 0.0 0.00 0.12 0.06 78 1019.5
20260502032005 38 74 0.0 0.0 0.00 0.12 0.06 78 1019.5
20260502031515 54 56 0.0 0.0 0.00 0.10 0.10 38 1019.8
20260502031511 38 74 0.0 0.0 0.00 0.12 0.06 77 1019.5
20260502031004 38 74 0.0 0.0 0.00 0.12 0.06 76 1019.5
20260502030504 39 74 0.0 0.0 0.00 0.12 0.06 76 1019.4
20260502030022 39 74 0.0 1.0 0.00 0.12 0.06 75 1019.4
20260502030014 54 56 0.0 0.0 0.00 0.10 0.10 39 1019.9
20260502025504 39 74 0.0 1.0 0.00 0.12 0.06 75 1019.4
20260502025004 39 74 0.0 1.0 0.00 0.12 0.06 75 1019.4
20260502024518 39 74 0.0 1.0 0.00 0.12 0.06 74 1019.3
20260502024512 53 56 0.0 0.0 0.00 0.10 0.10 39 1019.9
20260502024009 39 74 0.0 0.0 0.00 0.12 0.06 74 1019.3
20260502023508 39 74 0.0 0.0 0.00 0.12 0.06 73 1019.2
20260502023032 39 74 0.0 0.0 0.00 0.12 0.06 73 1019.2
20260502023009 53 56 0.0 0.0 0.00 0.10 0.10 39 1019.9
20260502022503 39 74 0.0 1.0 0.00 0.13 0.06 72 1019.3
20260502022003 39 74 0.0 3.0 0.00 0.13 0.06 72 1019.3
20260502021509 39 72 0.0 3.0 0.00 0.14 0.06 72 1019.2
20260502021507 53 56 0.0 0.0 0.00 0.10 0.10 38 1019.8
20260502021004 39 69 0.0 3.0 0.00 0.15 0.06 74 1019.1
20260502020504 40 65 0.0 3.0 0.00 0.16 0.06 75 1019.0
20260502020019 40 90 0.0 2.0 0.00 0.17 0.06 76 1019.0
20260502020004 53 56 0.0 0.0 0.00 0.10 0.10 36 1019.5
20260502015504 40 120 0.0 1.0 0.00 0.18 0.06 76 1019.0
20260502015005 39 85 0.0 1.0 0.00 0.18 0.06 76 1019.1
20260502014601 54 56 0.0 0.0 0.00 0.10 0.10 34 1019.3
20260502014516 39 81 0.0 1.0 0.00 0.19 0.06 76 1018.9
20260502014008 39 81 0.0 3.0 0.00 0.19 0.06 77 1018.9
20260502013504 39 140 0.0 4.0 0.00 0.20 0.06 76 1018.8
20260502013100 55 56 0.0 0.0 0.00 0.10 0.10 29 1018.9
20260502013024 39 50 0.0 4.0 0.00 0.20 0.06 76 1018.7
20260502012507 39 61 0.0 7.0 0.00 0.20 0.06 76 1018.6
20260502012007 39 67 1.0 7.0 0.00 0.20 0.06 75 1018.7
20260502011553 56 56 0.0 0.0 0.00 0.10 0.10 26 1018.5
20260502011526 40 90 0.0 4.0 0.00 0.20 0.06 75 1018.6
20260502011004 40 53 1.0 5.0 0.00 0.20 0.06 74 1018.4
20260502010502 40 61 1.0 8.0 0.00 0.20 0.06 73 1018.4
20260502010055 58 56 0.0 0.0 0.00 0.10 0.10 23 1018.4
20260502010009 40 59 3.0 8.0 0.00 0.20 0.06 71 1018.4
20260502005504 41 33 2.0 5.0 0.00 0.20 0.06 69 1018.4
20260502005003 41 45 2.0 5.0 0.00 0.20 0.06 68 1018.4